sat.trackr.live / text

‹ back to catalog

2025-226C

NORAD 65940 · 2025-226C

PAYLOAD ACTIVE UNKNOWN

§ Identity

Operator
Country
PRC
Launch date
2025-10-11
Launch site
YSLA
Launch vehicle
Mass (kg)
RCS (m²)

External: N2YO · Heavens-Above · Gunter

§ Orbital elements

Epoch: 2026-05-25T03:53:11.971968Z

Period
95.02 min
Inclination
97.6349°
Eccentricity
0.0012882
Mean motion
15.15510455 rev/d
Perigee alt
510.5 km
Apogee alt
528.3 km
Semi-major
6,897.6 km
B*
3.9323e-4
RAAN
225.0962°
Arg perigee
212.5821°
Mean anomaly
147.4617°
Rev number
3,419

§ Raw data

2025-226C1 65940U 25226C   26145.16194412  .00007397  00000+0  39323-3 0  99952 65940  97.6349 225.0962 0012882 212.5821 147.4617 15.15510455 34191

JSON: /api/v1/satellites/65940 · /tle

For live sub-satellite position, see the globe view (requires WebGL).

§ Visibility from observer

Set your observer location to see the next 7 days of passes ≥ 10°. The values pass through the URL so the page stays shareable.

No JS? Fill the form by hand. The geolocation button needs JavaScript.